When you browse on this site, cookies collect data to enhance your experience and personalize the content and advertising you see.
Visit our Privacy Policy to learn more. By continuing to use the site, you agree to this use of cookies and data.

Hourly Weather Jeddah

Today, 7 July, Tuesday

Time Temperature Precipitation Wind Pressure Humidity
00:00 +35°C° 0 mm 2 mps 749 mmHg 23%
01:00 +34°C° 0 mm 3 mps 749 mmHg 29%
02:00 +34°C° 0 mm 4 mps 749 mmHg 35%
03:00 +33°C° 0 mm 4 mps 748 mmHg 34%
04:00 +33°C° 0 mm 4 mps 749 mmHg 36%
05:00 +31°C° 0 mm 3 mps 749 mmHg 39%
06:00 +31°C° 0 mm 3 mps 749 mmHg 41%
07:00 +33°C° 0 mm 3 mps 750 mmHg 37%
08:00 +35°C° 0 mm 3 mps 750 mmHg 33%
09:00 +37°C° 0 mm 3 mps 751 mmHg 29%
10:00 +38°C° 0 mm 4 mps 751 mmHg 28%
11:00 +40°C° 0 mm 5 mps 751 mmHg 27%
12:00 +41°C° 0 mm 5 mps 751 mmHg 26%
13:00 +41°C° 0 mm 5 mps 751 mmHg 24%
14:00 +42°C° 0 mm 5 mps 750 mmHg 21%
15:00 +42°C° 0 mm 6 mps 750 mmHg 19%
16:00 +42°C° 0 mm 5 mps 750 mmHg 18%
17:00 +42°C° 0 mm 5 mps 750 mmHg 17%
18:00 +42°C° 0 mm 5 mps 750 mmHg 15%
19:00 +41°C° 0 mm 5 mps 750 mmHg 17%
20:00 +38°C° 0 mm 4 mps 750 mmHg 19%
21:00 +37°C° 0 mm 4 mps 751 mmHg 20%
22:00 +37°C° 0 mm 4 mps 751 mmHg 21%
23:00 +36°C° 0 mm 3 mps 751 mmHg 21%

Tomorrow, 8 July, Wednesday

Time Temperature Precipitation Wind Pressure Humidity
00:00 +36°C° 0 mm 3 mps 751 mmHg 22%
01:00 +35°C° 0 mm 3 mps 751 mmHg 24%
02:00 +34°C° 0 mm 4 mps 750 mmHg 27%
03:00 +34°C° 0 mm 4 mps 750 mmHg 30%
04:00 +33°C° 0 mm 4 mps 750 mmHg 30%
05:00 +33°C° 0 mm 3 mps 751 mmHg 31%
06:00 +33°C° 0 mm 3 mps 751 mmHg 31%
07:00 +35°C° 0 mm 3 mps 752 mmHg 27%
08:00 +37°C° 0 mm 4 mps 752 mmHg 23%
09:00 +40°C° 0 mm 4 mps 752 mmHg 19%
10:00 +41°C° 0 mm 5 mps 752 mmHg 18%
11:00 +42°C° 0 mm 5 mps 752 mmHg 18%
12:00 +44°C° 0 mm 6 mps 752 mmHg 17%
13:00 +44°C° 0 mm 6 mps 752 mmHg 16%
14:00 +45°C° 0 mm 6 mps 751 mmHg 15%
15:00 +45°C° 0 mm 7 mps 751 mmHg 14%
16:00 +44°C° 0 mm 6 mps 751 mmHg 15%
17:00 +42°C° 0 mm 6 mps 751 mmHg 15%
18:00 +42°C° 0 mm 6 mps 751 mmHg 16%
19:00 +40°C° 0 mm 6 mps 751 mmHg 17%
20:00 +39°C° 0 mm 5 mps 751 mmHg 18%
21:00 +36°C° 0 mm 5 mps 751 mmHg 20%
22:00 +36°C° 0 mm 4 mps 751 mmHg 19%
23:00 +35°C° 0 mm 4 mps 751 mmHg 19%

Day after tomorrow, 9 July, Thursday

Time Temperature Precipitation Wind Pressure Humidity
00:00 +35°C° 0 mm 3 mps 750 mmHg 19%
01:00 +34°C° 0 mm 3 mps 750 mmHg 21%
02:00 +34°C° 0 mm 3 mps 750 mmHg 22%
03:00 +33°C° 0 mm 3 mps 750 mmHg 24%
04:00 +33°C° 0 mm 3 mps 750 mmHg 26%
05:00 +33°C° 0 mm 4 mps 750 mmHg 28%
06:00 +32°C° 0 mm 4 mps 751 mmHg 30%
07:00 +34°C° 0 mm 4 mps 751 mmHg 26%
08:00 +36°C° 0 mm 4 mps 752 mmHg 23%
09:00 +38°C° 0 mm 4 mps 752 mmHg 19%
10:00 +41°C° 0 mm 5 mps 752 mmHg 17%
11:00 +42°C° 0 mm 5 mps 752 mmHg 16%
12:00 +45°C° 0 mm 6 mps 752 mmHg 14%
13:00 +45°C° 0 mm 6 mps 751 mmHg 14%
14:00 +45°C° 0 mm 6 mps 751 mmHg 13%
15:00 +45°C° 0 mm 6 mps 750 mmHg 13%
16:00 +44°C° 0 mm 6 mps 750 mmHg 13%
17:00 +44°C° 0 mm 6 mps 750 mmHg 14%
18:00 +42°C° 0 mm 6 mps 750 mmHg 14%
19:00 +41°C° 0 mm 5 mps 750 mmHg 15%
20:00 +40°C° 0 mm 4 mps 750 mmHg 17%
21:00 +37°C° 0 mm 3 mps 750 mmHg 18%
22:00 +36°C° 0 mm 4 mps 750 mmHg 22%
23:00 +35°C° 0 mm 4 mps 750 mmHg 26%

10 July, Friday

Time Temperature Precipitation Wind Pressure Humidity
00:00 +34°C° 0 mm 4 mps 750 mmHg 29%
01:00 +34°C° 0 mm 4 mps 749 mmHg 33%
02:00 +33°C° 0 mm 4 mps 749 mmHg 37%
03:00 +31°C° 0 mm 3 mps 749 mmHg 41%
04:00 +31°C° 0 mm 3 mps 749 mmHg 43%
05:00 +31°C° 0 mm 3 mps 750 mmHg 45%
06:00 +30°C° 0 mm 3 mps 750 mmHg 47%
07:00 +34°C° 0 mm 3 mps 750 mmHg 39%
08:00 +36°C° 0 mm 4 mps 751 mmHg 32%
09:00 +38°C° 0 mm 4 mps 751 mmHg 24%
10:00 +40°C° 0 mm 5 mps 751 mmHg 25%
11:00 +41°C° 0 mm 6 mps 751 mmHg 25%
12:00 +43°C° 0 mm 7 mps 751 mmHg 26%
13:00 +43°C° 0 mm 7 mps 751 mmHg 23%
14:00 +44°C° 0 mm 7 mps 750 mmHg 20%
15:00 +44°C° 0 mm 7 mps 750 mmHg 18%
16:00 +44°C° 0 mm 6 mps 750 mmHg 18%
17:00 +44°C° 0 mm 6 mps 750 mmHg 17%
18:00 +42°C° 0 mm 6 mps 750 mmHg 17%
19:00 +41°C° 0 mm 5 mps 750 mmHg 19%
20:00 +40°C° 0 mm 5 mps 751 mmHg 21%
21:00 +37°C° 0 mm 4 mps 751 mmHg 23%
22:00 +37°C° 0 mm 4 mps 751 mmHg 25%
23:00 +36°C° 0 mm 4 mps 751 mmHg 26%

11 July, Saturday

Time Temperature Precipitation Wind Pressure Humidity
00:00 +35°C° 0 mm 4 mps 751 mmHg 28%
01:00 +34°C° 0 mm 4 mps 750 mmHg 34%
02:00 +34°C° 0 mm 4 mps 750 mmHg 40%
03:00 +33°C° 0 mm 4 mps 750 mmHg 47%
04:00 +33°C° 0 mm 4 mps 750 mmHg 47%
05:00 +32°C° 0 mm 4 mps 750 mmHg 48%
06:00 +32°C° 0 mm 4 mps 750 mmHg 48%
07:00 +34°C° 0 mm 5 mps 750 mmHg 42%
08:00 +36°C° 0 mm 5 mps 751 mmHg 37%
09:00 +39°C° 0 mm 5 mps 751 mmHg 31%
10:00 +41°C° 0 mm 6 mps 751 mmHg 28%
11:00 +43°C° 0 mm 7 mps 751 mmHg 25%
12:00 +45°C° 0 mm 8 mps 751 mmHg 22%
13:00 +45°C° 0 mm 8 mps 750 mmHg 20%
14:00 +46°C° 0 mm 8 mps 750 mmHg 19%
15:00 +46°C° 0 mm 8 mps 749 mmHg 18%
16:00 +46°C° 0 mm 8 mps 749 mmHg 18%
17:00 +45°C° 0 mm 7 mps 749 mmHg 17%
18:00 +44°C° 0 mm 7 mps 749 mmHg 17%
19:00 +42°C° 0 mm 6 mps 749 mmHg 19%
20:00 +40°C° 0 mm 5 mps 749 mmHg 22%
21:00 +37°C° 0 mm 4 mps 750 mmHg 25%
22:00 +37°C° 0 mm 4 mps 749 mmHg 25%
23:00 +36°C° 0 mm 4 mps 749 mmHg 25%

12 July, Sunday

Time Temperature Precipitation Wind Pressure Humidity
00:00 +36°C° 0 mm 4 mps 749 mmHg 26%
01:00 +35°C° 0 mm 4 mps 748 mmHg 32%
02:00 +34°C° 0 mm 5 mps 748 mmHg 38%
03:00 +33°C° 0 mm 5 mps 748 mmHg 44%
04:00 +33°C° 0 mm 5 mps 748 mmHg 46%
05:00 +33°C° 0 mm 4 mps 748 mmHg 48%
06:00 +32°C° 0 mm 4 mps 748 mmHg 51%
07:00 +34°C° 0 mm 5 mps 748 mmHg 44%
08:00 +36°C° 0 mm 5 mps 749 mmHg 37%
09:00 +39°C° 0 mm 6 mps 749 mmHg 31%
10:00 +41°C° 0 mm 6 mps 749 mmHg 27%
11:00 +43°C° 0 mm 7 mps 749 mmHg 24%
12:00 +45°C° 0 mm 8 mps 749 mmHg 20%
13:00 +45°C° 0 mm 8 mps 748 mmHg 21%
14:00 +45°C° 0 mm 8 mps 748 mmHg 22%
15:00 +45°C° 0 mm 8 mps 748 mmHg 23%
16:00 +44°C° 0 mm 8 mps 748 mmHg 24%
17:00 +43°C° 0 mm 8 mps 748 mmHg 25%
18:00 +41°C° 0 mm 7 mps 748 mmHg 27%
19:00 +40°C° 0 mm 6 mps 748 mmHg 30%
20:00 +38°C° 0 mm 6 mps 748 mmHg 34%
21:00 +36°C° 0 mm 5 mps 748 mmHg 37%
22:00 +35°C° 0 mm 5 mps 748 mmHg 37%
23:00 +35°C° 0 mm 4 mps 747 mmHg 38%
Show more